カタログに戻る

STRIX-1

運用中科学SSO
NORAD 53815·PAYLOAD·🇯🇵 Japan

打ち上げ Sep 15, 2022 から Rocket Lab Launch Complex 1

Loading…

次のパス (今後24時間)

TLE

最新Source: Space-Track

元期: Sep 14, 2026, 14:59 UTC

1 53815U 22113A   26257.62460168  .00020163  00000-0  45032-3 0  9995
2 53815  97.4395 321.4437 0002075 263.7754  96.3257 15.43563552221223

AllMySatでSTRIX-1をリアルタイム追跡

Download on the App Store